ATLANTIS (42737 NORAD) Tracking and Keplerian Element Data
This shows tracking and keplerian element data for the satellite.
Feedback or suggestion? Click here.
Element | Value |
Catalog | 42737 |
Name | ATLANTIS |
Epoch Orbit | 4790 |
Epoch Day | 87.11387049 |
Epoch Year | 2018 |
RAAN | 27.9033 |
Inclination | 51.6172 |
Eccentricity | 0.0007517 |
Argument of Perigee | 251.1316 |
Mean Anonmoly | 108.7445 |
Mean Motion | 16.41503283 |
Decay Rate | 0.20601958 |
L1 | 1 42737U 98067MS 18087.11387049 .20601958 12400-4 12215-2 0 9995 |
L2 | 2 42737 51.6172 27.9033 0007517 251.1316 108.7445 16.41503283 47902 |
Live tracking and technical data element details for ATLANTIS (NORAD 42737). ATLANTIS can be tracked NOW for your location showing map with azimuth and elevation plus other details from your city location.
Track the satellite on the map from your city or location and see movement details for azimuth, elevation, latitude, longitude, range, height, and movement on the map or in text.
IsCatalogInMostPopularTable: catalog: 42737, numindb: 874
Update: records affected: 1
GetName: 42737 ATLANTIS
Hit Count: updated at: Sat, 23 Jan 2021 04:11:42 GMT